Hourly Data Report for October 04, 2017

All times are specified in Local Standard Time (LST). Add 1 hour to adjust for Daylight Saving Time where and when it is observed.

ESKASONI FIRST NATION AUTOMATIC WEATHER STATION
NOVA SCOTIA

45°55'14.000" N
60°38'49.000" W
28.00 m
8201780
71175
AEI

Download Data

Hourly Data (October 2017)
Hourly Data Report for October 4, 2017
Temp Definition
°C
Dew Point Temp Definition
°C
Rel Hum Definition
%
Wind Dir Definition
10's deg

Wind Spd Definition
km/h
Visibility Definition
km
Stn Press Definition
kPa
Hmdx Definition


Wind Chill Definition


Weather Definition


TIME
00:00 7.9 5.8 86 27 7   102.53     LegendNANA
01:00 9.0 6.5 84 28 8   102.47     LegendNANA
02:00 10.0 7.1 82 26 10   102.37     LegendNANA
03:00 10.3 6.1 75 24 12   102.29     LegendNANA
04:00 9.6 6.5 81 24 10   102.27     LegendNANA
05:00 8.8 6.6 86 28 6   102.17     LegendNANA
06:00 9.6 6.9 84 25 11   102.08     LegendNANA
07:00 10.5 7.8 83 24 12   102.02     LegendNANA
08:00 12.1 8.1 77 23 12   101.96     LegendNANA
09:00 13.5 9.3 76 22 18   101.91     LegendNANA
10:00 15.1 9.4 69 24 15   101.84     LegendNANA
11:00 15.8 10.3 70 21 20   101.76     LegendNANA
12:00 17.1 10.4 65 22 19   101.68     LegendNANA
13:00 19.1 10.6 58 24 13   101.56     LegendNANA
14:00 19.3 10.2 56 25 16   101.48     LegendNANA
15:00 19.5 10.5 56 25 14   101.41     LegendNANA
16:00 19.4 10.4 56 25 15   101.37     LegendNANA
17:00 18.4 10.6 60 24 9   101.31     LegendNANA
18:00 16.6 10.8 68 28 7   101.26     LegendNANA
19:00 15.9 12.7 81 22 12   101.22     LegendNANA
20:00 15.6 13.2 85 23 14   101.17     LegendNANA
21:00 15.7 13.3 86 22 21   101.12     LegendNANA
22:00 15.4 13.3 88 22 14   101.05     LegendNANA
23:00 15.3 13.7 90 22 21   101.00     LegendNANA

Notes on Data Quality.

Legend

  • E = Estimated
  • M = Missing
  • NA = Not Available
  • ‡ = Partner data that is not subject to review by the National Climate Archives
Date modified: